Regional Weather Roundup
Issued by NWS Portland, ME

Home | Current Version | Previous Version | Text Only | Print | Product List | Glossary On
Versions: 1 2 3 4 5 6 7 8 9 10 11 12 13 14 15 16 17 18 19 20 21 22 23 24 25 26 27 28 29 30 31 32 33 34 35 36 37 38 39 40 41 42 43 44 45 46 47 48 49 50
000
ASUS41 KGYX 021710
RWRGYX
WEATHER ROUNDUP FOR MAINE AND NEW HAMPSHIRE
NATIONAL WEATHER SERVICE GRAY ME
100 PM EDT WED SEP 02 2015

MEZ002-005-006-010-012-015-018-020-021-024-026-027-029-021800-
MAINE

CITY           SKY/WX    TMP DP  RH WIND       PRES   REMARKS
PORTLAND       SUNNY     83  67  58 SE7       29.92F
SANFORD        SUNNY     88  66  48 SW8       29.93F HX  90
BAR HARBOR     SUNNY     77  70  78 S9        29.91S
WISCASSET      SUNNY     83  64  52 VRB6      29.93F
ROCKLAND       SUNNY     75  64  69 S8        29.91S
FRYEBURG       SUNNY     83  65  54 VRB3      29.94F
LEWISTONAUBURN SUNNY     88 N/A N/A E3        29.94S
AUGUSTA        SUNNY     82  65  56 N7        29.92F
WATERVILLE     SUNNY     81  64  57 SW5       29.89F
BANGOR         SUNNY     83  65  54 VRB3      29.91F
GREENVILLE       N/A     76  65  68 VRB5      29.94S
MILLINOCKET    SUNNY     81  65  58 VRB5G18   29.89F
HOULTON        MOSUNNY   80  66  62 W10       29.85F
PRESQUE ISLE   MOSUNNY   81  61  50 W13G18    29.85F
FRENCHVILLE    CLOUDY    76  63  64 W7        29.86F
CARIBOU        CLOUDY    79  63  57 NW3       29.85F
$$

NHZ002-005-008-009-011-012-014-021800-
NEW HAMPSHIRE

CITY           SKY/WX    TMP DP  RH WIND       PRES   REMARKS
PORTSMOUTH     SUNNY     87  65  48 W6        29.91F
ROCHESTER      SUNNY     86  66  51 VRB5      29.92F
NASHUA         SUNNY     88  62  41 VRB5      29.93F
MANCHESTER     SUNNY     86  63  45 VRB3      29.92F
CONCORD        SUNNY     87  65  47 VRB5      29.94F
LACONIA        SUNNY     82  64  54 W6        29.93F
PLYMOUTH       FAIR      82  62  50 W8        29.94F
BERLIN         SUNNY     82  63  52 NW7       29.97F
WHITEFIELD     SUNNY     81  64  56 VRB5      29.98F
JAFFREY        SUNNY     81  59  47 SW7       29.99F
KEENE          SUNNY     81  63  54 CALM      29.97F
LEBANON        SUNNY     82  62  50 CALM      29.96F
MT WASHINGTON  MOSUNNY   64  34  32 W20         N/A
$$

VTZ005-007-008-021800-
VERMONT

CITY           SKY/WX    TMP DP  RH WIND       PRES   REMARKS
ST JOHNSBURY     N/A     79  63  57 MISG      29.95F
MONTPELIER     SUNNY     80  66  62 N5        30.02F
BURLINGTON     PTSUNNY   83  65  54 VRB3      29.96F
$$

MAZ007-012-024-CTZ003-RIZ002-NYZ038-NYZ072-021800-
SOUTHERN NEW ENGLAND AND NY

CITY           SKY/WX    TMP DP  RH WIND       PRES   REMARKS
BOSTON         SUNNY     88  64  44 W12G21    29.94F
WORCESTER      SUNNY     81  62  52 SW13      29.99F
NANTUCKET        N/A    N/A N/A N/A MISG      30.00F
PROVIDENCE     MOSUNNY   88  62  41 SW10      29.96F
HARTFORD       MOSUNNY   86  64  47 SW7       29.95F
ALBANY         MOSUNNY   85  66  53 N5        29.98F
NEW YORK CITY  PTSUNNY   87  65  47 CALM      29.97F
$$

ANZ081-ANZ082-ANZ150-NHZ014-MEZ023>029-021800-
COASTAL MARINE OBSERVATIONS

STATION/POSITION TIME  TEMP    WIND        PRES    WAVE
                       AIR SEA DIR/SP/G            HT/PER
                 (UTC) (F)     (DEG/KT/KT) (MB)    (FT/S)
MOUNT DESERT ROC 1700   60     210/ 14/ 15 1013.6F
MATINICUS ROCK   1700          240/ 12/ 13 1013.1F
ISLE OF SHOALS   1700   73     170/  9/  9 1012.9F
JEFFREYS LEDGE   1603      68                N/A     2/ 3
CASHES LEDGE BUO 1650   68                 1013.4F   2/ 4
GEORGES BANK BUO 1650   67 71  240/  6/  8 1016.0F   2/ 6
$$

.............KEY..............
   WCI - WIND CHILL
   TC  - TEMPERATURE IN CELSIUS
   VSB - VISIBILITY IN MILES
   HX  - HEAT INDEX
   FAIR- INDICATES FEW OR NO CLOUDS BELOW 12,000 FT, WITH NO
         SIGNIFICANT WEATHER AND/OR OBSTRUCTIONS TO VISIBILITY.




USA.gov is the U.S. government's official web portal to all federal, state and local government web resources and services.